Showing default

STSAT 3, 39422

Orbit data source: Space-Track

STSAT 3, 39422 is a payload satellite owned by KARI (KR) in SSO that was launched on Thu, 21 Nov 2013 UTC via a DNEPR launch vehicle from the Orenburg, Russia (OREN). Payload-class satellites include a variety of spacecraft equipped with specific instruments for various scientific and technological missions. These include communications satellites like Starlink; space stations such as the ISS; scientific satellites like the Hubble; Earth observation satellites from companies like Planet Labs, Umbra, and HawkEye 360; GPS; miniature CubeSats for education and research; and military/defense satellites.

Loading next visibility...
Identifier
39422, 2013-066G
Orbit
SSO
Country
Flag of UnknownUnknown / SKOR
Related business
Manufacturer
SatRec Initiative
Mission
Operational Civil Ast/Imaging
Bus & Motor
STSAT, Unknown motor
Mass
170 kg wet, 170 kg dry
Launch date (UTC)
2013-11-21 (12 years ago)
Launch vehicle
DNEPR
Launch site
Orenburg, Russia (OREN)
Object type
Payload
Rocket body
Debris
Shape & HBR
Box + 2 Pan, 0.9 m
Radar Cross Section
0.919 m², Medium (>0.1 m² and < 1m²)

Expand to show TLE details & history
Last TLE update: 3 hours ago

TLE from 3 hours ago
0 STSAT 3
1 39422U 13066G   26037.90026731  .00004343  00000-0  33636-3 0  9990
2 39422  97.6086  10.1272 0014557 111.0718 249.2064 15.01866891664640
Epoch: 2026-02-06T21:36Z
TLE epoch observation values (Epoch: 2026-02-06T21:36:23.095Z)
Latitude
-0.00011°
Longitude
-91.00053°
Altitude
567.799 km
Speed
7.575 km/s
True Right ascension
00h 40m 30s
True Declination
0° 00' 00"
Sunlit
Object was in daylight at epoch
Visualization orbit readout
Latitude
Unknown
Longitude
Unknown
Altitude
Unknown
Speed
Unknown
Apparent Right ascension
Unknown
Apparent Declination
Unknown
Sunlit
N/A
Visualization observer readout
Local Sidereal Time
02:41:30
Azimuth
Unknown
Elevation
Unknown
Doppler factor
Unknown
Orbital elements
Apogee altitude
568.236 km
Perigee altitude
548.041 km
Semi-major axis
6,936.276 km
Eccentricity
0.00146
Inclination
97.6086°
RAAN
10.1272°
Arg. of periapsis
111.0718°
True anomaly
249.05056°
Mean anomaly
249.2064°
Eccentric anomaly
249.12847°
Mean motion
3.75711 °/min
Orbital period
95.82 mins
BSTAR
0.00033636
Loading maneuver chart data...
Computing Atmospheric mass density...
Loading historical data...
Loading historical data...
Loading historical data...
Loading historical data...
Loading historical data...
Loading historical data...
Loading historical data...

Documentation

Showing up to 5 results
|